Location: Guadanolo
(41.9167°N, 12.9333°E)
Time: 12:06:56
(UTC+00:00)

H-2A R/B - Pass Details

Date: 16 September 2019
Orbit: 734 x 836 km, 98.3° (Epoch: 17 October)

Event Time Altitude Azimuth Distance (km) Brightness Sun altitude
Exits shadow 18:26:02 19° 121° (ESE) 1,720 3.2 -13.5°
Maximum altitude 18:28:54 34° 68° (ENE) 1,201 2.6 -14.0°
Drops below altitude 10° 18:33:23 10° 5° (N) 2,279 4.6 -14.8°
Sets 18:35:52 0° 356° (N) 3,221 5.5 -15.3°
